START_TIME,STEP,MOV.,M29,t_acc.,H22,t_acc.,H26,t_acc.,H30,t_acc.
1979-08-06 03:00:30.500 ,1,0,0.,24.0,0.,24.0,0.,24.0,0.,24.0
1979-08-06 03:00:54.500 ,2,1,0.,24.0,0.,24.0,0.,24.0,0.,24.0
1979-08-06 03:01:18.500 ,2,0,0.,24.0,0.,24.0,0.,24.0,0.,24.0
1979-08-06 03:01:42.500 ,3,1,0.,24.0,0.,24.0,0.,24.0,0.,24.0
1979-08-06 03:02:06.500 ,3,0,0.,24.0,0.,24.0,0.,24.0,0.,24.0
1979-08-06 03:02:30.490 ,4,1,0.,24.0,0.,24.0,0.,24.0,0.,24.0
1979-08-06 03:02:54.490 ,4,0,0.,24.0,0.,24.0,0.,24.0,0.,24.0
1979-08-06 03:03:18.490 ,5,1,0.,24.0,0.,24.0,0.,24.0,0.,24.0
1979-08-06 03:03:42.490 ,5,0,0.,24.0,0.,24.0,0.,24.0,0.,24.0
1979-08-06 03:04:06.490 ,6,1,0.,24.0,0.,24.0,0.,24.0,0.,24.0
1979-08-06 03:04:30.490 ,6,0,0.,24.0,0.,24.0,0.,24.0,0.,24.0
1979-08-06 03:04:54.490 ,7,1,0.,24.0,0.,24.0,0.,24.0,0.,24.0
1979-08-06 03:05:18.490 ,7,0,0.,24.0,0.,24.0,0.,24.0,0.,24.0
1979-08-06 03:05:42.490 ,7,1,0.,24.0,0.,24.0,0.,24.0,0.,24.0
1979-08-06 03:06:06.490 ,7,0,0.,24.0,0.,24.0,0.,24.0,0.,24.0
1979-08-06 03:06:30.490 ,6,1,0.,24.0,0.,24.0,0.,24.0,0.,24.0
1979-08-06 03:06:54.490 ,6,0,0.,24.0,0.,24.0,0.,24.0,0.,24.0
1979-08-06 03:07:18.490 ,0,0,0.,24.0,0.,24.0,0.,24.0,0.,24.0
1979-08-06 03:07:42.490 ,0,0,0.,24.0,0.,24.0,0.,24.0,0.,24.0
1979-08-06 03:08:06.490 ,4,1,0.,24.0,0.,24.0,0.,24.0,0.,24.0
1979-08-06 03:08:30.490 ,4,0,0.,24.0,0.,24.0,0.,24.0,0.,24.0
1979-08-06 03:08:54.490 ,3,1,0.,24.0,0.,24.0,0.,24.0,0.,24.0
1979-08-06 03:09:18.490 ,3,0,1.,24.0,0.,24.0,0.,24.0,0.,24.0
1979-08-06 03:09:42.490 ,2,1,0.,24.0,0.,24.0,0.,24.0,0.,24.0
1979-08-06 03:10:06.490 ,2,0,0.,24.0,0.,24.0,0.,24.0,0.,24.0
1979-08-06 03:10:30.490 ,1,1,0.,24.0,0.,24.0,0.,24.0,0.,24.0
1979-08-06 03:10:54.490 ,1,0,0.,24.0,0.,24.0,0.,24.0,0.,24.0
1979-08-06 03:11:18.490 ,0,1,0.,24.0,0.,24.0,0.,24.0,0.,24.0
1979-08-06 03:11:42.490 ,0,0,0.,24.0,0.,24.0,0.,24.0,0.,24.0
1979-08-06 03:12:06.490 ,0,0,0.,24.0,0.,24.0,0.,24.0,0.,24.0
1979-08-06 03:12:30.490 ,0,0,0.,24.0,0.,24.0,0.,24.0,0.,24.0
1979-08-06 03:12:54.490 ,1,1,0.,24.0,0.,24.0,0.,24.0,0.,24.0
1979-08-06 03:13:18.490 ,1,0,0.,24.0,0.,24.0,0.,24.0,0.,24.0
1979-08-06 03:13:42.490 ,2,1,0.,24.0,0.,24.0,0.,24.0,0.,24.0
1979-08-06 03:14:06.490 ,2,0,0.,24.0,0.,24.0,0.,24.0,0.,24.0
1979-08-06 03:14:30.490 ,3,1,0.,24.0,0.,24.0,0.,24.0,0.,24.0
1979-08-06 03:14:54.490 ,3,0,0.,24.0,0.,24.0,0.,24.0,0.,24.0
1979-08-06 03:15:18.490 ,4,1,0.,24.0,0.,24.0,0.,24.0,0.,24.0
1979-08-06 03:15:42.490 ,4,0,0.,24.0,0.,24.0,0.,24.0,0.,24.0
1979-08-06 03:16:06.490 ,5,1,0.,24.0,0.,24.0,0.,24.0,0.,24.0
1979-08-06 03:16:30.490 ,5,0,0.,24.0,0.,24.0,0.,24.0,0.,24.0
1979-08-06 03:16:54.490 ,6,1,0.,24.0,0.,24.0,0.,24.0,0.,24.0
1979-08-06 03:17:18.490 ,6,0,0.,24.0,0.,24.0,0.,24.0,0.,24.0
1979-08-06 03:17:42.490 ,7,1,0.,24.0,0.,24.0,0.,24.0,0.,24.0
1979-08-06 03:18:06.490 ,7,0,0.,24.0,0.,24.0,0.,24.0,0.,24.0
1979-08-06 03:18:30.490 ,7,1,0.,24.0,0.,24.0,0.,24.0,0.,24.0
1979-08-06 03:18:54.490 ,0,0,0.,24.0,0.,24.0,0.,24.0,0.,24.0
1979-08-06 03:19:18.490 ,6,1,0.,24.0,0.,24.0,0.,24.0,0.,24.0
1979-08-06 03:19:42.490 ,6,0,0.,24.0,0.,24.0,0.,24.0,0.,24.0
1979-08-06 03:20:06.490 ,5,1,0.,24.0,0.,24.0,0.,24.0,0.,24.0
1979-08-06 03:20:30.490 ,5,0,0.,24.0,0.,24.0,0.,24.0,0.,24.0
1979-08-06 03:20:54.490 ,4,1,0.,24.0,0.,24.0,0.,24.0,0.,24.0
1979-08-06 03:21:18.490 ,4,0,0.,24.0,0.,24.0,0.,24.0,0.,24.0
1979-08-06 03:21:42.490 ,3,1,0.,24.0,0.,24.0,0.,24.0,0.,24.0
1979-08-06 03:22:06.490 ,3,0,0.,24.0,0.,24.0,0.,24.0,0.,24.0
1979-08-06 03:22:30.490 ,2,1,0.,24.0,0.,24.0,0.,24.0,0.,24.0
1979-08-06 03:22:54.490 ,2,0,0.,24.0,0.,24.0,0.,24.0,0.,24.0
1979-08-06 03:23:18.490 ,1,1,0.,24.0,0.,24.0,0.,24.0,0.,24.0
1979-08-06 03:23:42.490 ,1,0,0.,24.0,0.,24.0,0.,24.0,0.,24.0
1979-08-06 03:24:06.490 ,0,1,0.,24.0,0.,24.0,0.,24.0,0.,24.0
1979-08-06 03:24:30.490 ,0,0,0.,24.0,0.,24.0,0.,24.0,0.,24.0
1979-08-06 03:24:54.490 ,0,1,0.,24.0,0.,24.0,0.,24.0,0.,24.0
1979-08-06 03:25:18.490 ,0,1,0.,24.0,0.,24.0,0.,24.0,0.,24.0
1979-08-06 03:25:42.490 ,1,1,0.,24.0,0.,24.0,0.,24.0,0.,24.0
1979-08-06 03:26:06.490 ,1,0,0.,24.0,0.,24.0,0.,24.0,0.,24.0
1979-08-06 03:26:30.490 ,2,1,0.,24.0,0.,24.0,0.,24.0,0.,24.0
1979-08-06 03:26:54.490 ,2,0,0.,24.0,0.,24.0,0.,24.0,0.,24.0
1979-08-06 03:27:18.490 ,3,1,0.,24.0,0.,24.0,0.,24.0,0.,24.0
1979-08-06 03:27:42.490 ,3,0,0.,24.0,0.,24.0,0.,24.0,0.,24.0
1979-08-06 03:28:06.490 ,4,1,0.,24.0,0.,24.0,0.,24.0,0.,24.0
1979-08-06 03:28:30.490 ,4,0,0.,24.0,0.,24.0,0.,24.0,0.,24.0
1979-08-06 03:28:54.490 ,5,1,0.,24.0,0.,24.0,0.,24.0,0.,24.0
1979-08-06 03:29:18.490 ,5,0,0.,24.0,0.,24.0,0.,24.0,0.,24.0
1979-08-06 03:29:42.490 ,6,1,0.,24.0,0.,24.0,0.,24.0,0.,24.0
1979-08-06 03:30:06.490 ,6,0,0.,24.0,0.,24.0,0.,24.0,0.,24.0
1979-08-06 03:30:30.490 ,7,0,0.,24.0,0.,24.0,0.,24.0,0.,24.0
1979-08-06 03:30:54.490 ,7,0,0.,24.0,0.,24.0,0.,24.0,0.,24.0
1979-08-06 03:31:18.490 ,5,1,0.,24.0,0.,24.0,0.,24.0,0.,24.0
1979-08-06 03:31:42.490 ,1,1,0.,24.0,0.,24.0,0.,24.0,0.,24.0
1979-08-06 03:32:06.490 ,2,1,0.,24.0,0.,24.0,0.,24.0,0.,24.0
1979-08-06 03:32:30.490 ,6,1,0.,24.0,0.,24.0,0.,24.0,0.,24.0
1979-08-06 03:32:54.490 ,5,1,0.,24.0,0.,24.0,0.,24.0,0.,24.0
1979-08-06 03:33:18.490 ,1,1,0.,24.0,0.,24.0,0.,24.0,0.,24.0
1979-08-06 03:33:42.490 ,2,1,0.,24.0,0.,24.0,0.,24.0,0.,24.0
1979-08-06 03:34:06.490 ,6,1,0.,24.0,0.,24.0,0.,24.0,0.,24.0
1979-08-06 03:34:30.490 ,5,1,0.,24.0,0.,24.0,0.,24.0,0.,24.0
1979-08-06 03:34:54.490 ,1,1,0.,24.0,0.,24.0,0.,24.0,0.,24.0
1979-08-06 03:35:18.490 ,2,1,0.,24.0,0.,24.0,0.,24.0,0.,24.0
1979-08-06 03:35:42.490 ,6,1,0.,24.0,0.,24.0,0.,24.0,0.,24.0
1979-08-06 03:36:06.490 ,5,1,0.,24.0,0.,24.0,0.,24.0,0.,24.0
1979-08-06 03:36:30.490 ,1,1,0.,24.0,0.,24.0,0.,24.0,0.,24.0
1979-08-06 03:36:54.490 ,2,1,0.,24.0,0.,24.0,0.,24.0,0.,24.0
1979-08-06 03:37:18.490 ,6,1,0.,24.0,0.,24.0,0.,24.0,0.,24.0
1979-08-06 03:37:42.490 ,5,1,0.,24.0,0.,24.0,0.,24.0,0.,24.0
1979-08-06 03:38:06.490 ,1,1,0.,24.0,0.,24.0,0.,24.0,0.,24.0
1979-08-06 03:38:30.490 ,2,1,0.,24.0,0.,24.0,0.,24.0,1.,24.0
1979-08-06 03:38:54.490 ,0,0,0.,24.0,0.,24.0,0.,24.0,0.,24.0
1979-08-06 03:39:18.490 ,5,1,0.,24.0,0.,24.0,0.,24.0,0.,24.0
1979-08-06 03:39:42.490 ,1,1,0.,24.0,0.,24.0,0.,24.0,0.,24.0
1979-08-06 03:40:06.490 ,2,1,0.,24.0,0.,24.0,0.,24.0,0.,24.0
1979-08-06 03:40:30.490 ,6,1,0.,24.0,0.,24.0,0.,24.0,0.,24.0
1979-08-06 03:40:54.490 ,5,1,0.,24.0,0.,24.0,0.,24.0,0.,24.0
1979-08-06 03:41:18.490 ,1,1,0.,24.0,0.,24.0,0.,24.0,0.,24.0
1979-08-06 03:41:42.490 ,0,0,,0,,0,,0,,0
1979-08-06 03:42:06.490 ,0,0,0.,24.0,0.,24.0,0.,24.0,0.,24.0
1979-08-06 03:42:30.490 ,5,1,0.,24.0,0.,24.0,0.,24.0,0.,24.0
1979-08-06 03:42:54.490 ,5,0,0.,24.0,0.,24.0,0.,24.0,0.,24.0
1979-08-06 03:43:18.490 ,4,1,0.,24.0,0.,24.0,0.,24.0,0.,24.0
1979-08-06 03:43:42.490 ,4,0,0.,24.0,0.,24.0,0.,24.0,0.,24.0
1979-08-06 03:44:06.490 ,3,1,0.,24.0,0.,24.0,0.,24.0,0.,24.0
1979-08-06 03:44:30.490 ,3,0,0.,24.0,0.,24.0,0.,24.0,0.,24.0
1979-08-06 03:44:54.490 ,2,1,0.,24.0,0.,24.0,0.,24.0,0.,24.0
1979-08-06 03:45:18.490 ,2,0,0.,24.0,0.,24.0,0.,24.0,0.,24.0
1979-08-06 03:45:42.490 ,1,1,0.,24.0,0.,24.0,0.,24.0,0.,24.0
1979-08-06 03:46:06.490 ,1,0,0.,24.0,0.,24.0,0.,24.0,0.,24.0
1979-08-06 03:46:30.490 ,0,1,0.,24.0,0.,24.0,0.,24.0,0.,24.0
1979-08-06 03:46:54.490 ,0,0,0.,24.0,0.,24.0,0.,24.0,0.,24.0
1979-08-06 03:47:18.490 ,0,1,0.,24.0,0.,24.0,0.,24.0,0.,24.0
1979-08-06 03:47:42.490 ,0,0,0.,24.0,0.,24.0,0.,24.0,0.,24.0
1979-08-06 03:48:06.490 ,1,1,0.,24.0,0.,24.0,0.,24.0,0.,24.0
1979-08-06 03:48:30.490 ,1,0,0.,24.0,0.,24.0,0.,24.0,0.,24.0
1979-08-06 03:48:54.490 ,2,1,0.,24.0,0.,24.0,0.,24.0,0.,24.0
1979-08-06 03:49:18.490 ,2,0,0.,24.0,0.,24.0,0.,24.0,0.,24.0
1979-08-06 03:49:42.490 ,3,1,0.,24.0,0.,24.0,0.,24.0,0.,24.0
1979-08-06 03:50:06.490 ,3,0,0.,24.0,0.,24.0,0.,24.0,0.,24.0
1979-08-06 03:50:30.490 ,4,1,0.,24.0,0.,24.0,0.,24.0,0.,24.0
1979-08-06 03:50:54.490 ,4,0,0.,24.0,0.,24.0,0.,24.0,0.,24.0
1979-08-06 03:51:18.490 ,5,1,0.,24.0,0.,24.0,0.,24.0,0.,24.0
1979-08-06 03:51:42.490 ,5,0,0.,24.0,0.,24.0,0.,24.0,0.,24.0
1979-08-06 03:52:06.490 ,6,1,0.,24.0,0.,24.0,0.,24.0,0.,24.0
1979-08-06 03:52:30.490 ,6,0,0.,24.0,0.,24.0,0.,24.0,0.,24.0
1979-08-06 03:52:54.490 ,0,0,0.,24.0,0.,24.0,0.,24.0,0.,24.0
1979-08-06 03:53:18.490 ,0,0,0.,24.0,0.,24.0,0.,24.0,0.,24.0
1979-08-06 03:53:42.490 ,7,1,0.,24.0,0.,24.0,0.,24.0,0.,24.0
1979-08-06 03:54:06.490 ,7,0,0.,24.0,0.,24.0,0.,24.0,0.,24.0
1979-08-06 03:54:30.490 ,6,1,0.,24.0,0.,24.0,0.,24.0,0.,24.0
1979-08-06 03:54:54.490 ,6,0,0.,24.0,0.,24.0,0.,24.0,0.,24.0
1979-08-06 03:55:18.490 ,5,1,0.,24.0,0.,24.0,0.,24.0,0.,24.0
1979-08-06 03:55:42.490 ,5,0,1.,24.0,0.,24.0,0.,24.0,0.,24.0
1979-08-06 03:56:06.490 ,4,1,0.,24.0,0.,24.0,0.,24.0,0.,24.0
1979-08-06 03:56:30.490 ,4,0,0.,24.0,0.,24.0,0.,24.0,0.,24.0
1979-08-06 03:56:54.490 ,3,1,0.,24.0,0.,24.0,0.,24.0,0.,24.0
1979-08-06 03:57:18.490 ,3,0,0.,24.0,0.,24.0,0.,24.0,0.,24.0
1979-08-06 03:57:42.490 ,2,1,0.,24.0,0.,24.0,0.,24.0,0.,24.0
1979-08-06 03:58:06.490 ,2,0,0.,24.0,0.,24.0,0.,24.0,0.,24.0
1979-08-06 03:58:30.490 ,1,1,0.,24.0,0.,24.0,0.,24.0,0.,24.0
1979-08-06 03:58:54.490 ,1,0,0.,24.0,0.,24.0,0.,24.0,0.,24.0
1979-08-06 03:59:18.490 ,0,1,0.,24.0,0.,24.0,0.,24.0,0.,24.0
1979-08-06 03:59:42.490 ,0,0,0.,24.0,0.,24.0,0.,24.0,0.,24.0
1979-08-06 04:00:06.490 ,0,1,0.,24.0,0.,24.0,0.,24.0,0.,24.0
1979-08-06 04:00:30.490 ,0,0,0.,24.0,0.,24.0,0.,24.0,0.,24.0
1979-08-06 04:00:54.490 ,1,1,1.,24.0,0.,24.0,0.,24.0,0.,24.0
1979-08-06 04:01:18.490 ,1,0,0.,24.0,0.,24.0,0.,24.0,0.,24.0
1979-08-06 04:01:42.490 ,2,1,0.,24.0,0.,24.0,0.,24.0,0.,24.0
1979-08-06 04:02:06.490 ,2,0,0.,24.0,0.,24.0,0.,24.0,0.,24.0
1979-08-06 04:02:30.490 ,3,1,0.,24.0,0.,24.0,0.,24.0,0.,24.0
1979-08-06 04:02:54.490 ,3,0,0.,24.0,0.,24.0,0.,24.0,0.,24.0
1979-08-06 04:03:18.490 ,4,1,0.,24.0,0.,24.0,0.,24.0,0.,24.0
1979-08-06 04:03:42.490 ,4,0,0.,24.0,0.,24.0,0.,24.0,0.,24.0
1979-08-06 04:04:06.490 ,5,1,0.,24.0,0.,24.0,0.,24.0,0.,24.0
1979-08-06 04:04:30.490 ,5,0,0.,24.0,0.,24.0,0.,24.0,0.,24.0
1979-08-06 04:04:54.490 ,6,1,0.,24.0,0.,24.0,0.,24.0,0.,24.0
1979-08-06 04:05:18.490 ,6,0,0.,24.0,0.,24.0,0.,24.0,0.,24.0
1979-08-06 04:05:42.490 ,7,1,0.,24.0,0.,24.0,0.,24.0,0.,24.0
1979-08-06 04:06:06.490 ,7,0,0.,24.0,0.,24.0,0.,24.0,0.,24.0
1979-08-06 04:06:30.490 ,7,0,,0,,0,,0,,0
1979-08-06 04:06:54.490 ,7,0,0.,24.0,0.,24.0,0.,24.0,0.,24.0
1979-08-06 04:07:18.490 ,6,1,1.,24.0,0.,24.0,0.,24.0,0.,24.0
1979-08-06 04:07:42.490 ,6,0,0.,24.0,0.,24.0,0.,24.0,0.,24.0
1979-08-06 04:08:06.490 ,5,1,0.,24.0,0.,24.0,0.,24.0,0.,24.0
1979-08-06 04:08:30.490 ,5,0,0.,24.0,0.,24.0,0.,24.0,0.,24.0
1979-08-06 04:08:54.490 ,4,1,0.,24.0,0.,24.0,0.,24.0,0.,24.0
1979-08-06 04:09:18.490 ,4,0,0.,24.0,0.,24.0,0.,24.0,0.,24.0
1979-08-06 04:09:42.490 ,3,1,0.,24.0,0.,24.0,0.,24.0,0.,24.0
1979-08-06 04:10:06.490 ,3,0,0.,24.0,0.,24.0,0.,24.0,0.,24.0
1979-08-06 04:10:30.490 ,2,1,0.,24.0,0.,24.0,0.,24.0,0.,24.0
1979-08-06 04:10:54.490 ,2,0,0.,24.0,0.,24.0,0.,24.0,0.,24.0
1979-08-06 04:11:18.490 ,1,1,0.,24.0,0.,24.0,0.,24.0,0.,24.0
1979-08-06 04:11:42.490 ,1,0,0.,24.0,0.,24.0,0.,24.0,0.,24.0
1979-08-06 04:12:06.490 ,0,1,0.,24.0,0.,24.0,0.,24.0,0.,24.0
1979-08-06 04:12:30.490 ,0,0,0.,24.0,0.,24.0,0.,24.0,0.,24.0
1979-08-06 04:12:54.490 ,0,1,0.,24.0,0.,24.0,0.,24.0,0.,24.0
1979-08-06 04:13:18.490 ,0,0,0.,24.0,0.,24.0,0.,24.0,0.,24.0
1979-08-06 04:13:42.490 ,1,1,2.,24.0,0.,24.0,0.,24.0,0.,24.0
1979-08-06 04:14:06.490 ,1,0,0.,24.0,0.,24.0,0.,24.0,0.,24.0
1979-08-06 04:14:30.490 ,2,1,0.,24.0,0.,24.0,0.,24.0,0.,24.0
1979-08-06 04:14:54.490 ,2,0,0.,24.0,0.,24.0,0.,24.0,0.,24.0
1979-08-06 04:15:18.490 ,3,1,0.,24.0,0.,24.0,0.,24.0,0.,24.0
1979-08-06 04:15:42.490 ,0,0,0.,24.0,0.,24.0,0.,24.0,0.,24.0
1979-08-06 04:16:06.490 ,4,1,0.,24.0,0.,24.0,0.,24.0,0.,24.0
1979-08-06 04:16:30.490 ,4,0,0.,24.0,0.,24.0,0.,24.0,0.,24.0
1979-08-06 04:16:54.490 ,5,1,1.,24.0,0.,24.0,0.,24.0,0.,24.0
1979-08-06 04:17:18.490 ,5,0,0.,24.0,0.,24.0,0.,24.0,0.,24.0
1979-08-06 04:17:42.490 ,6,1,0.,24.0,0.,24.0,0.,24.0,0.,24.0
1979-08-06 04:18:06.490 ,6,0,0.,24.0,0.,24.0,0.,24.0,0.,24.0
1979-08-06 04:18:30.490 ,7,0,0.,24.0,0.,24.0,0.,24.0,0.,24.0
1979-08-06 04:18:54.490 ,7,0,0.,24.0,0.,24.0,0.,24.0,0.,24.0
1979-08-06 04:19:18.490 ,5,1,0.,24.0,0.,24.0,0.,24.0,0.,24.0
1979-08-06 04:19:42.490 ,1,1,1.,24.0,0.,24.0,0.,24.0,0.,24.0
1979-08-06 04:20:06.490 ,2,1,0.,24.0,0.,24.0,0.,24.0,0.,24.0
1979-08-06 04:20:30.490 ,0,0,,0,,0,,0,,0
1979-08-06 04:20:37.690 ,0,0,0.,24.0,0.,24.0,0.,24.0,0.,24.0
1979-08-06 04:20:54.490 ,0,0,1.,24.0,0.,24.0,0.,24.0,0.,24.0
1979-08-06 04:21:18.490 ,1,1,0.,24.0,0.,24.0,0.,24.0,0.,24.0
1979-08-06 04:21:42.490 ,2,1,0.,24.0,0.,24.0,0.,24.0,0.,24.0
1979-08-06 04:22:06.490 ,6,1,0.,24.0,0.,24.0,0.,24.0,0.,24.0
1979-08-06 04:22:30.490 ,0,0,0.,24.0,0.,24.0,0.,24.0,0.,24.0
1979-08-06 04:22:54.490 ,1,1,0.,24.0,0.,24.0,0.,24.0,0.,24.0
1979-08-06 04:23:18.490 ,2,1,0.,24.0,0.,24.0,0.,24.0,0.,24.0
1979-08-06 04:23:42.490 ,6,1,0.,24.0,0.,24.0,0.,24.0,0.,24.0
1979-08-06 04:24:06.490 ,5,1,0.,24.0,0.,24.0,0.,24.0,0.,24.0
1979-08-06 04:24:30.490 ,1,1,1.,24.0,0.,24.0,0.,24.0,0.,24.0
1979-08-06 04:24:54.490 ,2,1,0.,24.0,0.,24.0,0.,24.0,0.,24.0
1979-08-06 04:25:18.490 ,6,1,0.,24.0,0.,24.0,0.,24.0,0.,24.0
1979-08-06 04:25:42.490 ,5,1,0.,24.0,0.,24.0,0.,24.0,0.,24.0
1979-08-06 04:26:06.490 ,1,1,0.,24.0,0.,24.0,0.,24.0,0.,24.0
1979-08-06 04:26:30.490 ,2,1,0.,24.0,0.,24.0,0.,24.0,0.,24.0
1979-08-06 04:26:54.490 ,6,1,0.,24.0,0.,24.0,0.,24.0,0.,24.0
1979-08-06 04:27:18.490 ,0,0,0.,24.0,0.,24.0,0.,24.0,0.,24.0
1979-08-06 04:27:42.490 ,1,1,0.,24.0,0.,24.0,0.,24.0,0.,24.0
1979-08-06 04:28:06.490 ,2,1,0.,24.0,0.,24.0,0.,24.0,0.,24.0
1979-08-06 04:28:30.490 ,6,1,0.,24.0,0.,24.0,0.,24.0,0.,24.0
1979-08-06 04:28:54.490 ,5,1,0.,24.0,0.,24.0,0.,24.0,0.,24.0
1979-08-06 04:29:18.490 ,1,1,0.,24.0,0.,24.0,0.,24.0,0.,24.0
1979-08-06 04:29:42.490 ,0,0,0.,24.0,0.,24.0,0.,24.0,0.,24.0
1979-08-06 04:30:06.490 ,0,0,0.,24.0,0.,24.0,0.,24.0,0.,24.0
1979-08-06 04:30:30.490 ,5,1,0.,24.0,0.,24.0,0.,24.0,0.,24.0
1979-08-06 04:30:54.490 ,5,0,0.,24.0,0.,24.0,0.,24.0,0.,24.0
1979-08-06 04:31:18.490 ,4,1,0.,24.0,0.,24.0,0.,24.0,0.,24.0
1979-08-06 04:31:42.490 ,4,0,0.,24.0,0.,24.0,0.,24.0,0.,24.0
1979-08-06 04:32:06.490 ,3,1,0.,24.0,0.,24.0,0.,24.0,0.,24.0
1979-08-06 04:32:30.490 ,3,0,0.,24.0,0.,24.0,0.,24.0,0.,24.0
1979-08-06 04:32:54.490 ,2,1,0.,24.0,0.,24.0,0.,24.0,0.,24.0
1979-08-06 04:33:18.490 ,2,0,0.,24.0,0.,24.0,0.,24.0,0.,24.0
1979-08-06 04:33:42.490 ,1,1,0.,24.0,0.,24.0,0.,24.0,0.,24.0
1979-08-06 04:34:06.490 ,1,0,0.,24.0,0.,24.0,0.,24.0,0.,24.0
1979-08-06 04:34:30.490 ,0,1,0.,24.0,0.,24.0,0.,24.0,0.,24.0
1979-08-06 04:34:54.490 ,0,0,0.,24.0,0.,24.0,0.,24.0,0.,24.0
1979-08-06 04:35:18.490 ,0,1,0.,24.0,0.,24.0,0.,24.0,0.,24.0
1979-08-06 04:35:42.490 ,0,0,0.,24.0,0.,24.0,0.,24.0,0.,24.0
1979-08-06 04:36:06.490 ,1,1,0.,24.0,0.,24.0,0.,24.0,0.,24.0
1979-08-06 04:36:30.490 ,1,0,0.,24.0,0.,24.0,0.,24.0,0.,24.0
1979-08-06 04:36:54.490 ,2,1,0.,24.0,0.,24.0,0.,24.0,0.,24.0
1979-08-06 04:37:18.490 ,2,0,0.,24.0,0.,24.0,0.,24.0,0.,24.0
1979-08-06 04:37:42.490 ,3,1,0.,24.0,0.,24.0,0.,24.0,0.,24.0
1979-08-06 04:38:06.490 ,3,0,0.,24.0,0.,24.0,0.,24.0,0.,24.0
1979-08-06 04:38:30.490 ,4,1,0.,24.0,0.,24.0,0.,24.0,0.,24.0
1979-08-06 04:38:54.490 ,4,0,0.,24.0,0.,24.0,0.,24.0,0.,24.0
1979-08-06 04:39:18.490 ,5,1,0.,24.0,0.,24.0,0.,24.0,0.,24.0
1979-08-06 04:39:42.490 ,5,0,0.,24.0,0.,24.0,0.,24.0,0.,24.0
1979-08-06 04:40:06.490 ,6,1,0.,24.0,0.,24.0,0.,24.0,0.,24.0
1979-08-06 04:40:30.490 ,6,0,0.,24.0,0.,24.0,0.,24.0,0.,24.0
1979-08-06 04:40:54.490 ,7,1,0.,24.0,0.,24.0,0.,24.0,0.,24.0
1979-08-06 04:41:18.490 ,7,0,0.,24.0,0.,24.0,0.,24.0,0.,24.0
1979-08-06 04:41:42.490 ,7,1,0.,24.0,0.,24.0,0.,24.0,0.,24.0
1979-08-06 04:42:06.490 ,7,0,0.,24.0,0.,24.0,0.,24.0,0.,24.0
1979-08-06 04:42:30.490 ,6,1,0.,24.0,0.,24.0,0.,24.0,0.,24.0
1979-08-06 04:42:54.490 ,6,0,0.,24.0,0.,24.0,0.,24.0,0.,24.0
1979-08-06 04:43:18.490 ,5,1,0.,24.0,0.,24.0,0.,24.0,0.,24.0
1979-08-06 04:43:42.490 ,5,0,0.,24.0,0.,24.0,0.,24.0,0.,24.0
1979-08-06 04:44:06.490 ,4,0,,0,,0,,0,,0
1979-08-06 04:44:30.490 ,4,0,0.,24.0,0.,24.0,0.,24.0,0.,24.0
1979-08-06 04:44:54.490 ,3,1,0.,24.0,0.,24.0,0.,24.0,0.,24.0
1979-08-06 04:45:18.490 ,3,0,0.,24.0,0.,24.0,0.,24.0,0.,24.0
1979-08-06 04:45:42.490 ,2,1,0.,24.0,0.,24.0,0.,24.0,0.,24.0
1979-08-06 04:46:06.490 ,2,0,0.,24.0,0.,24.0,0.,24.0,0.,24.0
1979-08-06 04:46:30.490 ,1,1,0.,24.0,0.,24.0,0.,24.0,0.,24.0
1979-08-06 04:46:54.490 ,1,0,0.,24.0,0.,24.0,0.,24.0,0.,24.0
1979-08-06 04:47:18.490 ,0,1,0.,24.0,0.,24.0,0.,24.0,0.,24.0
1979-08-06 04:47:42.490 ,0,0,0.,24.0,0.,24.0,0.,24.0,0.,24.0
1979-08-06 04:48:04.690 ,0,0,,0,,0,,0,,0
1979-08-06 04:48:06.490 ,0,1,0.,24.0,0.,24.0,0.,24.0,0.,24.0
1979-08-06 04:48:30.490 ,0,0,0.,24.0,0.,24.0,0.,24.0,0.,24.0
1979-08-06 04:48:54.490 ,1,1,0.,24.0,0.,24.0,0.,24.0,0.,24.0
1979-08-06 04:49:18.490 ,1,0,0.,24.0,0.,24.0,0.,24.0,0.,24.0
1979-08-06 04:49:42.490 ,2,1,0.,24.0,0.,24.0,0.,24.0,0.,24.0
1979-08-06 04:50:06.490 ,2,0,0.,24.0,0.,24.0,0.,24.0,0.,24.0
1979-08-06 04:50:30.490 ,3,1,0.,24.0,0.,24.0,0.,24.0,0.,24.0
1979-08-06 04:50:54.490 ,3,0,0.,24.0,0.,24.0,0.,24.0,0.,24.0
1979-08-06 04:51:18.490 ,4,1,0.,24.0,0.,24.0,0.,24.0,0.,24.0
1979-08-06 04:51:42.490 ,4,0,0.,24.0,0.,24.0,0.,24.0,0.,24.0
1979-08-06 04:52:06.490 ,5,1,0.,24.0,0.,24.0,0.,24.0,0.,24.0
1979-08-06 04:52:30.490 ,5,0,0.,24.0,0.,24.0,0.,24.0,0.,24.0
1979-08-06 04:52:54.490 ,6,1,0.,24.0,0.,24.0,0.,24.0,0.,24.0
1979-08-06 04:53:18.490 ,6,0,1.,24.0,0.,24.0,0.,24.0,0.,24.0
1979-08-06 04:53:42.490 ,7,1,0.,24.0,0.,24.0,0.,24.0,0.,24.0
1979-08-06 04:54:06.490 ,7,0,0.,24.0,0.,24.0,0.,24.0,0.,24.0
1979-08-06 04:54:30.490 ,7,1,0.,24.0,0.,24.0,0.,24.0,0.,24.0
1979-08-06 04:54:54.490 ,7,0,0.,24.0,0.,24.0,0.,24.0,0.,24.0
1979-08-06 04:55:18.490 ,6,1,0.,24.0,0.,24.0,0.,24.0,0.,24.0
1979-08-06 04:55:42.490 ,6,0,1.,24.0,0.,24.0,0.,24.0,0.,24.0
1979-08-06 04:56:06.490 ,5,1,0.,24.0,0.,24.0,0.,24.0,0.,24.0
1979-08-06 04:56:30.490 ,5,0,0.,24.0,0.,24.0,0.,24.0,0.,24.0
1979-08-06 04:56:54.490 ,4,1,0.,24.0,0.,24.0,0.,24.0,0.,24.0
1979-08-06 04:57:18.490 ,4,0,0.,24.0,0.,24.0,0.,24.0,0.,24.0
1979-08-06 04:57:42.490 ,3,1,0.,24.0,0.,24.0,0.,24.0,0.,24.0
1979-08-06 04:58:06.490 ,0,0,0.,24.0,0.,24.0,0.,24.0,0.,24.0
1979-08-06 04:58:30.490 ,2,1,0.,24.0,0.,24.0,0.,24.0,0.,24.0
1979-08-06 04:58:54.490 ,2,0,0.,24.0,0.,24.0,0.,24.0,0.,24.0
1979-08-06 04:59:18.490 ,1,1,0.,24.0,0.,24.0,0.,24.0,0.,24.0
1979-08-06 04:59:42.490 ,1,0,0.,24.0,0.,24.0,0.,24.0,0.,24.0
1979-08-06 05:00:06.490 ,0,1,0.,24.0,0.,24.0,0.,24.0,0.,24.0
1979-08-06 05:00:30.490 ,0,0,0.,24.0,0.,24.0,0.,24.0,0.,24.0
1979-08-06 05:00:54.490 ,0,1,0.,24.0,0.,24.0,0.,24.0,0.,24.0
1979-08-06 05:01:18.490 ,0,0,0.,24.0,0.,24.0,0.,24.0,0.,24.0
1979-08-06 05:01:42.490 ,1,1,0.,24.0,0.,24.0,0.,24.0,0.,24.0
1979-08-06 05:02:06.490 ,1,0,0.,24.0,0.,24.0,0.,24.0,0.,24.0
1979-08-06 05:02:30.490 ,2,1,0.,24.0,0.,24.0,0.,24.0,0.,24.0
1979-08-06 05:02:54.490 ,2,0,0.,24.0,0.,24.0,0.,24.0,0.,24.0
1979-08-06 05:03:18.490 ,3,1,0.,24.0,0.,24.0,0.,24.0,0.,24.0
1979-08-06 05:03:42.490 ,3,0,0.,24.0,0.,24.0,0.,24.0,0.,24.0
1979-08-06 05:04:06.490 ,4,1,0.,24.0,0.,24.0,0.,24.0,0.,24.0
1979-08-06 05:04:30.490 ,4,0,0.,24.0,0.,24.0,0.,24.0,0.,24.0
1979-08-06 05:04:54.490 ,5,1,0.,24.0,0.,24.0,0.,24.0,0.,24.0
1979-08-06 05:05:18.490 ,5,0,0.,24.0,0.,24.0,0.,24.0,0.,24.0
1979-08-06 05:05:42.490 ,6,1,0.,24.0,0.,24.0,0.,24.0,0.,24.0
1979-08-06 05:06:06.490 ,6,0,0.,24.0,0.,24.0,0.,24.0,0.,24.0
1979-08-06 05:06:30.490 ,7,0,0.,24.0,0.,24.0,0.,24.0,0.,24.0
1979-08-06 05:06:54.490 ,7,0,0.,24.0,0.,24.0,0.,24.0,0.,24.0
1979-08-06 05:07:18.490 ,5,1,0.,24.0,0.,24.0,0.,24.0,0.,24.0
1979-08-06 05:07:42.490 ,1,1,0.,24.0,0.,24.0,0.,24.0,0.,24.0
1979-08-06 05:08:06.490 ,2,1,0.,24.0,0.,24.0,0.,24.0,0.,24.0
1979-08-06 05:08:30.490 ,6,1,0.,24.0,0.,24.0,0.,24.0,0.,24.0
1979-08-06 05:08:54.490 ,5,1,0.,24.0,0.,24.0,0.,24.0,0.,24.0
1979-08-06 05:09:18.490 ,1,1,0.,24.0,0.,24.0,0.,24.0,0.,24.0
1979-08-06 05:09:42.490 ,2,1,0.,24.0,0.,24.0,0.,24.0,0.,24.0
1979-08-06 05:10:06.490 ,6,1,0.,24.0,0.,24.0,0.,24.0,0.,24.0
1979-08-06 05:10:30.490 ,5,1,0.,24.0,0.,24.0,0.,24.0,0.,24.0
1979-08-06 05:10:54.490 ,1,1,0.,24.0,0.,24.0,0.,24.0,0.,24.0
1979-08-06 05:11:18.490 ,2,1,0.,24.0,0.,24.0,0.,24.0,0.,24.0
1979-08-06 05:11:42.490 ,6,1,1.,24.0,0.,24.0,0.,24.0,0.,24.0
1979-08-06 05:12:06.490 ,5,1,0.,24.0,0.,24.0,0.,24.0,0.,24.0
1979-08-06 05:12:30.490 ,1,1,0.,24.0,0.,24.0,0.,24.0,0.,24.0
1979-08-06 05:12:54.490 ,2,1,0.,24.0,0.,24.0,0.,24.0,0.,24.0
1979-08-06 05:13:18.490 ,6,1,0.,24.0,0.,24.0,0.,24.0,0.,24.0
1979-08-06 05:13:42.490 ,5,1,0.,24.0,0.,24.0,0.,24.0,0.,24.0
1979-08-06 05:14:06.490 ,1,1,0.,24.0,0.,24.0,0.,24.0,0.,24.0
1979-08-06 05:14:30.490 ,2,1,0.,24.0,0.,24.0,0.,24.0,0.,24.0
1979-08-06 05:14:54.490 ,6,1,0.,24.0,0.,24.0,0.,24.0,0.,24.0
1979-08-06 05:15:18.490 ,5,1,0.,24.0,0.,24.0,0.,24.0,0.,24.0
1979-08-06 05:15:42.490 ,1,1,0.,24.0,0.,24.0,0.,24.0,0.,24.0
1979-08-06 05:16:06.490 ,2,1,1.,24.0,0.,24.0,0.,24.0,0.,24.0
1979-08-06 05:16:30.490 ,6,1,0.,24.0,0.,24.0,0.,24.0,0.,24.0
1979-08-06 05:16:54.490 ,5,1,0.,24.0,0.,24.0,0.,24.0,0.,24.0
1979-08-06 05:17:18.490 ,1,1,0.,24.0,0.,24.0,0.,24.0,0.,24.0
1979-08-06 05:17:42.490 ,0,0,0.,24.0,0.,24.0,0.,24.0,0.,24.0
1979-08-06 05:18:06.490 ,0,0,0.,24.0,0.,24.0,0.,24.0,0.,24.0
1979-08-06 05:18:30.490 ,5,1,0.,24.0,0.,24.0,0.,24.0,0.,24.0
1979-08-06 05:18:54.490 ,5,0,0.,24.0,0.,24.0,0.,24.0,0.,24.0
1979-08-06 05:19:19.090 ,4,1,0.,24.0,0.,24.0,0.,24.0,0.,24.0
1979-08-06 05:19:42.490 ,4,0,0.,24.0,0.,24.0,0.,24.0,0.,24.0
1979-08-06 05:20:06.490 ,3,1,0.,24.0,0.,24.0,0.,24.0,0.,24.0
1979-08-06 05:20:30.490 ,3,0,0.,24.0,0.,24.0,0.,24.0,0.,24.0
1979-08-06 05:20:54.490 ,2,1,0.,24.0,0.,24.0,0.,24.0,0.,24.0
1979-08-06 05:21:18.490 ,2,0,0.,24.0,0.,24.0,0.,24.0,0.,24.0
1979-08-06 05:21:42.490 ,1,1,0.,24.0,0.,24.0,0.,24.0,0.,24.0
1979-08-06 05:22:06.490 ,1,0,0.,24.0,0.,24.0,0.,24.0,0.,24.0
1979-08-06 05:22:30.490 ,0,1,0.,24.0,0.,24.0,0.,24.0,0.,24.0
1979-08-06 05:22:54.490 ,0,0,0.,24.0,0.,24.0,0.,24.0,0.,24.0
1979-08-06 05:23:18.490 ,0,1,0.,24.0,0.,24.0,0.,24.0,0.,24.0
1979-08-06 05:23:42.490 ,0,0,0.,24.0,0.,24.0,0.,24.0,0.,24.0
1979-08-06 05:24:07.090 ,1,1,0.,24.0,0.,24.0,0.,24.0,0.,24.0
1979-08-06 05:24:30.490 ,1,0,0.,24.0,0.,24.0,0.,24.0,0.,24.0
1979-08-06 05:24:54.490 ,0,0,0.,24.0,0.,24.0,0.,24.0,0.,24.0
1979-08-06 05:25:18.490 ,0,0,0.,24.0,0.,24.0,0.,24.0,0.,24.0
1979-08-06 05:25:42.490 ,3,1,0.,24.0,0.,24.0,0.,24.0,0.,24.0
1979-08-06 05:26:06.490 ,3,0,0.,24.0,0.,24.0,0.,24.0,0.,24.0
1979-08-06 05:26:30.490 ,4,1,0.,24.0,0.,24.0,0.,24.0,0.,24.0
1979-08-06 05:26:54.490 ,4,0,0.,24.0,0.,24.0,0.,24.0,0.,24.0
1979-08-06 05:27:18.490 ,5,1,0.,24.0,0.,24.0,0.,24.0,0.,24.0
1979-08-06 05:27:42.490 ,5,0,0.,24.0,0.,24.0,0.,24.0,0.,24.0
1979-08-06 05:28:06.490 ,6,1,0.,24.0,0.,24.0,0.,24.0,0.,24.0
1979-08-06 05:28:30.490 ,6,0,0.,24.0,0.,24.0,0.,24.0,0.,24.0
1979-08-06 05:28:54.490 ,7,1,0.,24.0,0.,24.0,0.,24.0,0.,24.0
1979-08-06 05:29:18.490 ,7,0,0.,24.0,0.,24.0,0.,24.0,0.,24.0
1979-08-06 05:29:42.490 ,7,1,0.,24.0,0.,24.0,0.,24.0,0.,24.0
1979-08-06 05:30:06.490 ,7,0,0.,24.0,0.,24.0,0.,24.0,0.,24.0
1979-08-06 05:30:30.490 ,6,1,0.,24.0,0.,24.0,0.,24.0,0.,24.0
1979-08-06 05:30:54.490 ,6,0,0.,24.0,0.,24.0,0.,24.0,0.,24.0
1979-08-06 05:31:18.490 ,5,1,0.,24.0,0.,24.0,0.,24.0,0.,24.0
1979-08-06 05:31:42.490 ,5,0,0.,24.0,0.,24.0,0.,24.0,0.,24.0
1979-08-06 05:32:06.490 ,4,1,0.,24.0,0.,24.0,0.,24.0,0.,24.0
1979-08-06 05:32:30.490 ,4,0,,0,,0,,0,,0
1979-08-06 05:32:54.490 ,3,1,0.,24.0,0.,24.0,0.,24.0,0.,24.0
1979-08-06 05:33:18.490 ,3,0,0.,24.0,0.,24.0,0.,24.0,0.,24.0
1979-08-06 05:33:42.490 ,2,1,0.,24.0,0.,24.0,0.,24.0,0.,24.0
1979-08-06 05:34:06.490 ,2,0,0.,24.0,0.,24.0,0.,24.0,0.,24.0